This is the latest recevied weather packets stored in our database for station/object AI5ON. If no packets are shown the sender has not sent any weather packets the latest 10 day(s).
| Time | Temp. | Humidity | Pressure | Rain* | Wind** | Luminosity | Snow |
|---|---|---|---|---|---|---|---|
| 1787856834 | 30° C | 69% | 1015.3 hPa | 0 mm | - | 442 W/m² | - |
| 1787856533 | 30° C | 69% | 1015.4 hPa | 0 mm | - | 562 W/m² | - |
| 1787856229 | 28.89° C | 69% | 1015.5 hPa | 0 mm | - | 519 W/m² | - |
| 1787855924 | 29.44° C | 70% | 1015.4 hPa | 0 mm | - | 758 W/m² | - |
| 1787855624 | 28.89° C | 72% | 1015.4 hPa | 0 mm | - | 533 W/m² | - |
| 1787855319 | 28.33° C | 73% | 1015.4 hPa | 0 mm | - | 605 W/m² | - |
| 1787855015 | 28.89° C | 73% | 1015.3 hPa | 0 mm | - | 445 W/m² | - |
| 1787854710 | 28.89° C | 73% | 1015.5 hPa | 0 mm | - | 443 W/m² | - |
| 1787854409 | 28.33° C | 74% | 1015.4 hPa | 0 mm | - | 386 W/m² | - |
| 1787854109 | 28.33° C | 73% | 1015.6 hPa | 0 mm | - | 360 W/m² | - |
| 1787853804 | 28.33° C | 74% | 1015.4 hPa | 0 mm | - | 473 W/m² | - |
| 1787853502 | 27.78° C | 75% | 1015.4 hPa | 0 mm | - | 380 W/m² | - |
| 1787853197 | 27.78° C | 76% | 1015.9 hPa | 0 mm | - | 201 W/m² | - |
| 1787852897 | 28.33° C | 74% | 1016 hPa | 0 mm | - | 199 W/m² | - |
| 1787852591 | 28.33° C | 74% | 1015.8 hPa | 0 mm | - | 285 W/m² | - |
| 1787852291 | 28.89° C | 70% | 1015.8 hPa | 0 mm | - | 378 W/m² | - |
| 1787851990 | 28.89° C | 71% | 1015.9 hPa | 0 mm | - | 411 W/m² | - |
| 1787851689 | 28.33° C | 73% | 1015.9 hPa | 0 mm | - | 508 W/m² | - |
| 1787851384 | 28.33° C | 73% | 1015.7 hPa | 0 mm | - | 633 W/m² | - |
| 1787851079 | 27.78° C | 73% | 1015.9 hPa | 0 mm | - | 642 W/m² | - |
| 1787850775 | 27.78° C | 77% | 1016.1 hPa | 0 mm | - | 541 W/m² | - |
| 1787850471 | 27.22° C | 76% | 1016.1 hPa | 0 mm | - | 345 W/m² | - |
| 1787850166 | 27.22° C | 78% | 1016 hPa | 0 mm | - | 284 W/m² | - |
| 1787849866 | 27.22° C | 78% | 1015.9 hPa | 0 mm | - | 220 W/m² | - |
| 1787849561 | 27.22° C | 76% | 1016 hPa | 0 mm | - | 280 W/m² | - |
* Rain latest hour (hover to see other rain measurements)
** Current wind speed in m/s (hover to see current wind gust speed)